• en France
  • Liste des pays
  • À 7 jours
  • Température de l'eau
  • Carte satellitaire
  • Carte météo
  • Widgets météo
  • user-avatar
    Se connecter

    Météo par heure à Escaldes-Engordany

    Ce jour, 22 Septembre, Samedi

    Heure Température Précipitation Vent Pression Humidité
    00:00 +13°C° 0 mm 1 m/s 644 mmHg 92%
    01:00 +13°C° 0 mm 1 m/s 644 mmHg 92%
    02:00 +13°C° 0 mm 1 m/s 644 mmHg 92%
    03:00 +13°C° 0 mm 1 m/s 644 mmHg 92%
    04:00 +12°C° 0 mm 1 m/s 644 mmHg 92%
    05:00 +12°C° 0 mm 1 m/s 644 mmHg 92%
    06:00 +12°C° 0 mm 1 m/s 644 mmHg 92%
    07:00 +14°C° 0 mm 1 m/s 645 mmHg 82%
    08:00 +16°C° 0 mm 1 m/s 646 mmHg 73%
    09:00 +20°C° 0 mm 1 m/s 647 mmHg 64%
    10:00 +21°C° 0 mm 1 m/s 647 mmHg 58%
    11:00 +23°C° 0 mm 1 m/s 648 mmHg 52%
    12:00 +24°C° 0 mm 2 m/s 648 mmHg 46%
    13:00 +24°C° 0 mm 2 m/s 648 mmHg 47%
    14:00 +24°C° 0 mm 2 m/s 647 mmHg 47%
    15:00 +24°C° 0 mm 2 m/s 647 mmHg 48%
    16:00 +22°C° 0 mm 1 m/s 646 mmHg 55%
    17:00 +20°C° 0 mm 1 m/s 646 mmHg 62%
    18:00 +18°C° 0 mm 1 m/s 645 mmHg 69%
    19:00 +16°C° 0 mm 1 m/s 645 mmHg 71%
    20:00 +15°C° 0 mm 1 m/s 645 mmHg 74%
    21:00 +15°C° 0 mm 2 m/s 646 mmHg 77%
    22:00 +14°C° 0 mm 2 m/s 646 mmHg 78%
    23:00 +14°C° 0 mm 2 m/s 646 mmHg 79%

    Demain, 23 Septembre, Dimanche

    Heure Température Précipitation Vent Pression Humidité
    00:00 +14°C° 0 mm 2 m/s 646 mmHg 80%
    01:00 +14°C° 0 mm 1 m/s 645 mmHg 80%
    02:00 +14°C° 0 mm 1 m/s 645 mmHg 80%
    03:00 +14°C° 0 mm 1 m/s 645 mmHg 79%
    04:00 +13°C° 0 mm 1 m/s 645 mmHg 79%
    05:00 +13°C° 0 mm 1 m/s 645 mmHg 78%
    06:00 +13°C° 0 mm 1 m/s 645 mmHg 77%
    07:00 +16°C° 0 mm 1 m/s 646 mmHg 68%
    08:00 +19°C° 0 mm 1 m/s 647 mmHg 59%
    09:00 +20°C° 0 mm 0 m/s 648 mmHg 50%
    10:00 +23°C° 0 mm 1 m/s 648 mmHg 47%
    11:00 +24°C° 0 mm 1 m/s 648 mmHg 45%
    12:00 +25°C° 0 mm 2 m/s 648 mmHg 42%
    13:00 +25°C° 0 mm 2 m/s 648 mmHg 43%
    14:00 +25°C° 0 mm 2 m/s 647 mmHg 45%
    15:00 +24°C° 0 mm 2 m/s 647 mmHg 46%
    16:00 +21°C° 0 mm 2 m/s 646 mmHg 53%
    17:00 +20°C° 0 mm 2 m/s 646 mmHg 60%
    18:00 +18°C° 0 mm 2 m/s 645 mmHg 67%
    19:00 +17°C° 0 mm 2 m/s 645 mmHg 71%
    20:00 +16°C° 0 mm 2 m/s 645 mmHg 75%
    21:00 +15°C° 0 mm 2 m/s 646 mmHg 79%
    22:00 +14°C° 0 mm 2 m/s 645 mmHg 81%
    23:00 +14°C° 0 mm 2 m/s 645 mmHg 82%

    Après-demain, 24 Septembre, Lundi

    Heure Température Précipitation Vent Pression Humidité
    00:00 +13°C° 0 mm 2 m/s 645 mmHg 84%
    01:00 +13°C° 0 mm 2 m/s 645 mmHg 82%
    02:00 +13°C° 0 mm 2 m/s 644 mmHg 80%
    03:00 +13°C° 0 mm 2 m/s 644 mmHg 77%
    04:00 +13°C° 0 mm 2 m/s 644 mmHg 79%
    05:00 +13°C° 0 mm 2 m/s 644 mmHg 81%
    06:00 +13°C° 0 mm 2 m/s 644 mmHg 82%
    07:00 +14°C° 0 mm 2 m/s 645 mmHg 78%
    08:00 +16°C° 0 mm 2 m/s 646 mmHg 73%
    09:00 +17°C° 0 mm 2 m/s 647 mmHg 69%
    10:00 +18°C° 0 mm 2 m/s 647 mmHg 67%
    11:00 +18°C° 0 mm 2 m/s 647 mmHg 65%
    12:00 +19°C° 0 mm 2 m/s 647 mmHg 63%
    13:00 +18°C° 0 mm 2 m/s 646 mmHg 64%
    14:00 +18°C° 0 mm 3 m/s 646 mmHg 65%
    15:00 +18°C° 0 mm 3 m/s 646 mmHg 66%
    16:00 +16°C° 0.1 mm 3 m/s 645 mmHg 70%
    17:00 +14°C° 0.1 mm 3 m/s 645 mmHg 75%
    18:00 +13°C° 0.1 mm 2 m/s 644 mmHg 79%
    19:00 +12°C° 0.1 mm 2 m/s 645 mmHg 80%
    20:00 +10°C° 0.1 mm 2 m/s 645 mmHg 81%
    21:00 +10°C° 0.1 mm 2 m/s 645 mmHg 82%
    22:00 +9°C° 0.1 mm 2 m/s 645 mmHg 79%
    23:00 +9°C° 0.1 mm 2 m/s 645 mmHg 76%

    25 Septembre, Mardi

    Heure Température Précipitation Vent Pression Humidité
    00:00 +8°C° 0.1 mm 2 m/s 644 mmHg 74%
    01:00 +8°C° 0 mm 2 m/s 644 mmHg 72%
    02:00 +9°C° 0 mm 1 m/s 644 mmHg 71%
    03:00 +9°C° 0 mm 1 m/s 644 mmHg 69%
    04:00 +9°C° 0 mm 1 m/s 644 mmHg 71%
    05:00 +9°C° 0 mm 1 m/s 644 mmHg 73%
    06:00 +8°C° 0 mm 1 m/s 644 mmHg 75%
    07:00 +10°C° 0 mm 1 m/s 645 mmHg 71%
    08:00 +13°C° 0 mm 1 m/s 646 mmHg 66%
    09:00 +15°C° 0 mm 2 m/s 647 mmHg 62%
    10:00 +15°C° 0 mm 2 m/s 647 mmHg 61%
    11:00 +16°C° 0 mm 2 m/s 648 mmHg 60%
    12:00 +16°C° 0 mm 3 m/s 648 mmHg 59%
    13:00 +16°C° 0.1 mm 2 m/s 647 mmHg 61%
    14:00 +16°C° 0.1 mm 2 m/s 647 mmHg 62%
    15:00 +16°C° 0.1 mm 2 m/s 647 mmHg 64%
    16:00 +15°C° 0 mm 2 m/s 647 mmHg 69%
    17:00 +14°C° 0 mm 2 m/s 646 mmHg 74%
    18:00 +12°C° 0 mm 2 m/s 646 mmHg 79%
    19:00 +12°C° 0 mm 1 m/s 646 mmHg 82%
    20:00 +11°C° 0 mm 1 m/s 646 mmHg 84%
    21:00 +10°C° 0 mm 1 m/s 646 mmHg 87%
    22:00 +10°C° 0 mm 1 m/s 646 mmHg 87%
    23:00 +10°C° 0 mm 1 m/s 646 mmHg 86%

    26 Septembre, Mercredi

    Heure Température Précipitation Vent Pression Humidité
    00:00 +9°C° 0 mm 1 m/s 646 mmHg 86%
    01:00 +9°C° 0 mm 1 m/s 646 mmHg 85%
    02:00 +9°C° 0 mm 1 m/s 646 mmHg 84%
    03:00 +9°C° 0 mm 1 m/s 646 mmHg 83%
    04:00 +9°C° 0 mm 1 m/s 646 mmHg 83%
    05:00 +9°C° 0 mm 1 m/s 646 mmHg 82%
    06:00 +9°C° 0 mm 1 m/s 646 mmHg 81%
    07:00 +10°C° 0 mm 2 m/s 647 mmHg 71%
    08:00 +14°C° 0 mm 2 m/s 648 mmHg 62%
    09:00 +16°C° 0 mm 2 m/s 649 mmHg 52%
    10:00 +17°C° 0 mm 2 m/s 649 mmHg 50%
    11:00 +19°C° 0 mm 3 m/s 649 mmHg 47%
    12:00 +20°C° 0 mm 3 m/s 650 mmHg 45%
    13:00 +20°C° 0 mm 3 m/s 649 mmHg 46%
    14:00 +20°C° 0 mm 3 m/s 649 mmHg 47%
    15:00 +20°C° 0 mm 3 m/s 649 mmHg 49%
    16:00 +18°C° 0 mm 2 m/s 648 mmHg 58%
    17:00 +15°C° 0 mm 2 m/s 648 mmHg 67%
    18:00 +13°C° 0 mm 2 m/s 647 mmHg 76%
    19:00 +13°C° 0 mm 1 m/s 647 mmHg 78%
    20:00 +12°C° 0 mm 1 m/s 647 mmHg 81%
    21:00 +11°C° 0 mm 1 m/s 647 mmHg 83%
    22:00 +11°C° 0 mm 1 m/s 647 mmHg 83%
    23:00 +11°C° 0 mm 1 m/s 647 mmHg 83%

    27 Septembre, Jeudi

    Heure Température Précipitation Vent Pression Humidité
    00:00 +11°C° 0 mm 1 m/s 646 mmHg 83%
    01:00 +11°C° 0 mm 1 m/s 646 mmHg 82%
    02:00 +10°C° 0 mm 1 m/s 646 mmHg 81%
    03:00 +10°C° 0 mm 1 m/s 646 mmHg 80%
    04:00 +10°C° 0 mm 1 m/s 646 mmHg 78%
    05:00 +10°C° 0 mm 1 m/s 646 mmHg 76%
    06:00 +10°C° 0 mm 1 m/s 646 mmHg 74%
    07:00 +13°C° 0 mm 1 m/s 647 mmHg 65%
    08:00 +15°C° 0 mm 1 m/s 648 mmHg 56%
    09:00 +19°C° 0 mm 1 m/s 649 mmHg 48%
    10:00 +20°C° 0 mm 1 m/s 649 mmHg 45%
    11:00 +20°C° 0 mm 2 m/s 649 mmHg 43%
    12:00 +21°C° 0 mm 2 m/s 649 mmHg 41%
    13:00 +21°C° 0 mm 2 m/s 649 mmHg 42%
    14:00 +21°C° 0 mm 2 m/s 648 mmHg 43%
    15:00 +21°C° 0 mm 2 m/s 648 mmHg 45%
    16:00 +20°C° 0 mm 1 m/s 647 mmHg 54%
    17:00 +16°C° 0 mm 1 m/s 646 mmHg 64%
    18:00 +14°C° 0 mm 1 m/s 645 mmHg 74%
    19:00 +14°C° 0 mm 1 m/s 645 mmHg 77%
    20:00 +13°C° 0 mm 1 m/s 645 mmHg 80%
    21:00 +12°C° 0 mm 1 m/s 645 mmHg 82%
    22:00 +12°C° 0 mm 1 m/s 645 mmHg 82%
    23:00 +12°C° 0 mm 1 m/s 645 mmHg 82%
    Voir plus